Preview of NWS' New Version of Forecast
This preview is not operational and should not be used for support decisions.

Regional Weather Roundup (RWR)

Issued by National Weather Service (NWS)

                            
000
ASUS46 KSEW 171010
RWRWA 

WASHINGTON REGIONAL WEATHER ROUNDUP
NATIONAL WEATHER SERVICE SEATTLE WA
300 AM PDT WED JUL 17 2019

NOTE:"FAIR" INDICATES FEW OR NO CLOUDS BELOW 12,000 FEET WITH NO 
SIGNIFICANT WEATHER AND/OR OBSTRUCTIONS TO VISIBILITY.

WAZ507-509-555>559-171100-
SEATTLE, TACOMA, EVERETT, AND VICINITY
  
CITY           SKY/WX    TMP DP  RH WIND       PRES   REMARKS
EVERETT        CLOUDY    63  54  72 S13       29.92F                  
BOEING FIELD   CLOUDY    64  54  69 S10       29.93F                  
RENTON         CLOUDY    65  55  70 S8        29.92F                  
SEATAC AIRPORT CLOUDY    63  54  72 S12       29.93F                  
JBLM-MCCHORD   CLOUDY    62  61  94 S8        29.95F                  
PUYALLUP       CLOUDY    63  57  82 VRB5      29.95F                  
BREMERTON      CLOUDY    60  56  86 S10       29.92F                  
JBLM-FT LEWIS  NOT AVBL                                               
TACOMA NARROWS CLOUDY    60  55  83 S9        29.95F                  
$$
 
WAZ001-503-506-510-514-515-171100-
NORTH INTERIOR
  
CITY           SKY/WX    TMP DP  RH WIND       PRES   REMARKS
BELLINGHAM     CLOUDY    63  54  72 S12       29.86F                  
FRIDAY HARBOR  CLOUDY    54  52  93 CALM      29.88F                  
EASTSOUND      CLOUDY    61  55  82 S7        29.86F                  
PORT ANGELES   LGT RAIN  57  56  96 CALM      29.90S                  
EDIZ HOOK      DRIZZLE   55  53  94 CALM      29.89F                  
PORT TOWNSEND  CLOUDY    61  55  82 E5        29.88F                  
NAS WHIDBEY    CLOUDY    64  54  69 SE6       29.92F                  
ARLINGTON      CLOUDY    62  56  80 SE7       29.91F                  
BURLINGTON     CLOUDY    63  55  77 S6        29.89F                  
$$
 
WAZ020-022-039-040-504-511-512-171100-
SOUTHWEST INTERIOR
  
CITY           SKY/WX    TMP DP  RH WIND       PRES   REMARKS
SHELTON        CLOUDY    62  56  80 SW10      29.91F                  
OLYMPIA        CLOUDY    61  55  81 S3        29.95F                  
CHEHALIS       CLOUDY    63  59  88 S6        29.96F                  
KELSO          MOCLDY    60  57  89 S3        29.99F                  
VANCOUVER      CLOUDY    64  54  69 CALM      29.98F                  
SCAPPOOSE, OR  CLOUDY    58  55  90 W3        29.98F                  
PORTLAND, OR   CLOUDY    66  53  63 CALM      29.99S                  
$$
 
WAZ021-516-517-171100-
WASHINGTON COAST
  
CITY           SKY/WX    TMP DP  RH WIND       PRES   REMARKS
FORKS          CLOUDY    61  59  93 S5        29.88F                  
HOQUIAM        CLOUDY    63  60  90 SW12      29.94F                  
ASTORIA, OR    CLOUDY    63  57  81 S6        29.96F                  
$$
 
WAZ019-023-024-040-567>569-171100-
CASCADE MOUNTAINS AND COLUMBIA GORGE
  
CITY           SKY/WX    TMP DP  RH WIND       PRES   REMARKS
STAMPEDE PASS  FOG       50  48  93 VRB6      29.98F VSB 1/4          
TROUTDALE, OR  CLOUDY    65  54  67 CALM      29.98F                  
HOOD RIVER, OR PTSUNNY   63  52  67 W12G17    29.95R                  
THE DALLES, OR PTCLDY    68  52  56 W21G29    29.91R                  
$$

WAZ026-027-041>044-520-521-171100-
EAST SLOPES
  
CITY           SKY/WX    TMP DP  RH WIND       PRES   REMARKS
OMAK           CLOUDY    62  51  67 NW5       29.80F                  
WENATCHEE      CLOUDY    67  47  48 NW3       29.84S                  
ELLENSBURG     CLOUDY    63  52  67 NW12      29.89S                  
YAKIMA         MOCLDY    58  49  72 CALM      29.88S                  
SUNNYSIDE ARPT MOSUNNY   56  54  90 CALM      29.87                   
YAKIMA TC      PTSUNNY   63  47  56 E3        29.87S                  
$$

WAZ028-034-035-171100-
COLUMBIA BASIN
  
CITY           SKY/WX    TMP DP  RH WIND       PRES   REMARKS
EPHRATA        MOCLDY    65  47  52 S5        29.82S                  
MOSES LAKE     MOCLDY    66  50  56 SW6       29.84S                  
PASCO          PTCLDY    70  52  52 S6        29.85S                  
RICHLAND ARPT  MOSUNNY   70  52  53 SW3       29.85                   
HERMISTON, OR  MOCLDY    69  52  54 SW13      29.87R                  
$$

WAZ036>038-171100-
NORTHEAST WASHINGTON
  
CITY           SKY/WX    TMP DP  RH WIND       PRES   REMARKS
SPOKANE GEIGER CLOUDY    60  51  72 SE5       29.88S                  
SPOKANE FELTS  NOT AVBL                                               
FAIRCHILD AFB  CLOUDY    57  55  93 E3        29.88S                  
COEURDALENE,ID MOCLDY    56  51  84 CALM      29.90S                  
DEER PARK      CLOUDY    51  49  92 N3        29.89S                  
$$

WAZ029>033-171100-
SOUTHEAST WASHINGTON
  
CITY           SKY/WX    TMP DP  RH WIND       PRES   REMARKS
PULLMAN        MOCLDY    53  44  71 CALM      29.93S                  
LEWISTON, ID   PTCLDY    62  46  55 CALM      29.88R                  
WALLA WALLA    CLOUDY    69  45  41 S14       29.90R                  
PENDLETON, OR  MOCLDY    68  49  50 SW10      29.92R                  
$$